logo
App data

Alien Shooter

Your mission is simple: clear the base at all costs. You will be provided with explosives to help you gain access to the teleports from where thousands of pitiless creatures pour.
Store | Hub | SteamDB | Site
Developer: Sigma Team Inc. Publisher: Sigma Team Inc.
Genre: Action, Indie, RPG
Languages: English, Russian
Tags: Shooter (167), Action (165), Blood (160), Aliens (150), Horror (147), Gore (144), Action RPG (136), Sci-fi (135), Top-Down (133), Isometric (130), Singleplayer (130), RPG (124), Beat 'em up (122), Looter Shooter (117), Top-Down Shooter (114), Indie (111), Atmospheric (96), Arcade (96), Arena Shooter (84), Rogue-like (81)
Category: Single-player, Steam Achievements, Steam Trading Cards, Partial Controller Support, Steam Cloud, Steam Leaderboards
Release date: Sep 15, 2003
Price: $4.99
Old userscore: 94% Owners: 200,000 .. 500,000
Followers: 4,032
Peak concurrent players yesterday: 47
YouTube stats: 12,497 views and 70 comments for top 50 videos uploaded last week, 46 new videos uploaded yesterday.
Playtime total: 03:16 (average) 01:56 (median)

Steam Spy is still in beta, so expect major bugs.

Owners data:

Access restricted.

This feature is only available to users with special access rights. Sorry.

If you want to proceed, you need to register or log in first and then back Steam Spy on Patreon. Look for Indie or Pro pledge.

Don't forget to use the same email as on Steam Spy!

If you've recently backed Steam Spy on Patreon, please note, that it might take around 15 minutes for your access rights to sync. In most cases you'll need to re-login on Steam Spy too.

Audience in 2 weeks:

Access restricted.

This feature is only available to users with special access rights. Sorry.

If you want to proceed, you need to register or log in first and then back Steam Spy on Patreon. Look for Indie or Pro pledge.

Don't forget to use the same email as on Steam Spy!

If you've recently backed Steam Spy on Patreon, please note, that it might take around 15 minutes for your access rights to sync. In most cases you'll need to re-login on Steam Spy too.

Peak daily concurrent players:

CCU data courtesy of SteamDB. Used with permission.

Hourly concurrent players:

Daily Twitch stats:

Hourly Twitch stats:

Followers over time

Access restricted.

This feature is only available to users with special access rights. Sorry.

If you want to proceed, you need to register or log in first and then back Steam Spy on Patreon. Look for Indie or Pro pledge.

Don't forget to use the same email as on Steam Spy!

If you've recently backed Steam Spy on Patreon, please note, that it might take around 15 minutes for your access rights to sync. In most cases you'll need to re-login on Steam Spy too.

Views for top 50 videos on YouTube for this game:

Games similar to this one:

# Game Release date
Price
Score rank
(Userscore / Metascore)
Owners
Players
Playtime (Median)
1 The Ship: Single Player Nov 20, 2006 $9.99N/A (N/A)200,000 .. 500,0000%00:00 (00:00)
2 Alpha Prime Nov 7, 2007 $4.99N/A (N/A/59%)200,000 .. 500,0000%00:00 (00:00)
3 Painkiller Overdose Oct 30, 2007 $4.99N/A (N/A/65%)100,000 .. 200,0000%00:00 (00:00)
4 Judge Dredd: Dredd vs. Death Mar 26, 2009 $7.99N/A (N/A/55%)50,000 .. 100,0000%00:00 (00:00)
5 Armed and Dangerous Dec 2, 2003 $5.99N/A (N/A/78%)20,000 .. 50,0000%00:00 (00:00)
6 Project: Snowblind Feb 22, 2005 $5.99N/A (N/A/76%)100,000 .. 200,0000%00:00 (00:00)
7 Conflict: Denied Ops Feb 8, 2008 $5.99N/A (N/A/58%)100,000 .. 200,0000%00:00 (00:00)
8 QUAKE Mission Pack 1: Scourge of Armagon Feb 28, 1997 N/AN/A (N/A)50,000 .. 100,0000%00:00 (00:00)
9 Frontlines: Fuel of War Feb 29, 2008 $19.99N/A (N/A/73%)200,000 .. 500,0000%00:00 (00:00)
10 TimeShift Oct 30, 2007 $19.99N/A (N/A/71%)100,000 .. 200,0000%00:00 (00:00)
11 Larva Mortus Mar 19, 2009 $2.99N/A (N/A/64%)100,000 .. 200,0000%00:00 (00:00)
12 Damnation May 22, 2009 $9.99N/A (N/A/41%)50,000 .. 100,0000%00:00 (00:00)
13 Unreal 2: The Awakening Mar 17, 2008 $14.99N/A (N/A/75%)200,000 .. 500,0000%00:00 (00:00)
14 Prince of Persia: Warrior Within Nov 21, 2008 $9.99N/A (N/A/83%)200,000 .. 500,0000%00:00 (00:00)
15 Prince of Persia: The Two Thrones Nov 21, 2008 $9.99N/A (N/A/85%)200,000 .. 500,0000%00:00 (00:00)
16 Tom Clancy's Rainbow Six Vegas Dec 12, 2006 $9.99N/A (N/A/85%)100,000 .. 200,0000%00:00 (00:00)
17 Tom Clancy's Ghost Recon Desert Siege Mar 26, 2002 $4.99N/A (N/A/82%)50,000 .. 100,0000%00:00 (00:00)
18 Tom Clancy's Rainbow Six Lockdown Feb 14, 2006 $9.99N/A (N/A/59%)100,000 .. 200,0000%00:00 (00:00)
19 Rayman Raving Rabbids Jun 13, 2008 $9.99N/A (N/A/58%)50,000 .. 100,0000%00:00 (00:00)
20 Legendary Dec 1, 2008 $4.99N/A (N/A/50%)200,000 .. 500,0000%00:00 (00:00)
21 Rocket Knight May 11, 2010 $14.99N/A (N/A/63%)0 .. 20,0000%00:00 (00:00)
22 Prince of Persia Dec 10, 2008 $9.99N/A (N/A/82%)200,000 .. 500,0000%00:00 (00:00)
23 Bionic Commando Jul 28, 2009 $9.99N/A (N/A/69%)200,000 .. 500,0001.69%00:50 (00:16)
24 Bionic Commando: Rearmed Jul 28, 2009 $9.99N/A (N/A/86%)200,000 .. 500,0000%00:00 (00:00)
25 Alien Breed: Impact Jun 3, 2010 $2.29N/A (N/A/64%)200,000 .. 500,0000%00:00 (00:00)
26 Alien Breed 2: Assault Sep 22, 2010 $2.29N/A (N/A/63%)500,000 .. 1,000,0000%00:00 (00:00)
27 Blacklight: Tango Down Jul 14, 2010 N/AN/A (N/A/65%)50,000 .. 100,0000%00:00 (00:00)
28 Twin Sector Sep 16, 2009 $4.99N/A (N/A)50,000 .. 100,0000%00:00 (00:00)
29 Dead Horde Jul 27, 2011 $5.99N/A (N/A)50,000 .. 100,0000%00:00 (00:00)
30 Sam & Max 301: The Penal Zone Oct 1, 1987 $9.99N/A (N/A)100,000 .. 200,0000%00:00 (00:00)
31 Iron Grip: Warlord Dec 5, 2008 N/AN/A (N/A/59%)100,000 .. 200,0000%00:00 (00:00)
32 Delta Force Land Warrior Nov 7, 2000 $9.99N/A (N/A/74%)50,000 .. 100,0000%00:00 (00:00)
33 Delta Force: Task Force Dagger Jun 27, 2002 $9.99N/A (N/A/51%)20,000 .. 50,0000%00:00 (00:00)
34 Comanche 4 Nov 15, 2001 $9.99N/A (N/A/74%)50,000 .. 100,0000%00:00 (00:00)
35 Alien Shooter: Revisited Apr 15, 2009 $4.99N/A (N/A)200,000 .. 500,0000%00:00 (00:00)
36 Zombie Shooter Dec 29, 2007 $4.99N/A (N/A)200,000 .. 500,0000%00:00 (00:00)
37 Zombie Shooter 2 Sep 23, 2009 $9.99N/A (N/A)100,000 .. 200,0000%00:00 (00:00)
38 SEGA Mega Drive and Genesis Classics Jun 1, 2010 $24.79N/A (N/A)1,000,000 .. 2,000,0000%00:00 (00:00)
39 Project Freedom Oct 14, 2009 $1.19N/A (N/A)20,000 .. 50,0000%00:00 (00:00)
40 Foreign Legion: Buckets of Blood Aug 4, 2009 $3.99N/A (N/A)100,000 .. 200,0000%00:00 (00:00)
41 Painkiller: Resurrection Oct 27, 2009 $9.99N/A (N/A/38%)100,000 .. 200,0000%00:00 (00:00)
42 AquaNox Apr 20, 2010 $4.99N/A (N/A/67%)100,000 .. 200,0000%00:00 (00:00)
43 AquaNox 2: Revelation Apr 20, 2010 $4.99N/A (N/A/59%)100,000 .. 200,0000%00:00 (00:00)
44 Chaser Jul 16, 2010 $4.99N/A (N/A/66%)100,000 .. 200,0000%00:00 (00:00)
45 DogFighter Jun 14, 2010 $0.99N/A (N/A)100,000 .. 200,0000%00:00 (00:00)
46 Wasteland Angel Sep 1, 2011 $4.99N/A (N/A)50,000 .. 100,0000%00:00 (00:00)
47 Plain Sight Apr 5, 2010 $4.99N/A (N/A/76%)50,000 .. 100,0000%00:00 (00:00)
48 NyxQuest: Kindred Spirits Sep 27, 2010 $2.99N/A (N/A)20,000 .. 50,0000%00:00 (00:00)
49 The First Templar - Steam Special Edition May 12, 2011 $9.99N/A (N/A/57%)100,000 .. 200,0000%00:00 (00:00)
50 Who's That Flying?! Jan 31, 2011 $5.99N/A (N/A/76%)20,000 .. 50,0000%00:00 (00:00)
51 Painkiller Redemption Feb 25, 2011 $4.99N/A (N/A/43%)200,000 .. 500,0000%00:00 (00:00)
52 Xotic Sep 16, 2011 $9.99N/A (N/A/67%)50,000 .. 100,0000%00:00 (00:00)
53 Capsized Apr 29, 2011 $9.99N/A (N/A/80%)200,000 .. 500,0000%00:00 (00:00)
54 Garshasp: The Monster Slayer May 9, 2011 $4.99N/A (N/A/49%)50,000 .. 100,0000%00:00 (00:00)
55 Garshasp: Temple of the Dragon Sep 24, 2012 $4.99N/A (N/A)20,000 .. 50,0000%00:00 (00:00)
56 Alien Zombie Megadeath Oct 18, 2011 $4.99N/A (N/A)20,000 .. 50,0000%00:00 (00:00)
57 Bunch of Heroes Sep 21, 2011 $4.99N/A (N/A)100,000 .. 200,0000%00:00 (00:00)
58 Serious Sam Double D XXL Aug 30, 2011 $9.99N/A (N/A)200,000 .. 500,0000%00:00 (00:00)
59 Global Ops: Commando Libya Oct 26, 2011 $4.99N/A (N/A/37%)50,000 .. 100,0000%00:00 (00:00)
60 Choplifter HD Jan 11, 2012 N/AN/A (N/A/65%)50,000 .. 100,0000%00:00 (00:00)
61 Sonic the Hedgehog 4 - Episode II May 15, 2012 $9.99N/A (N/A/54%)100,000 .. 200,0000%00:00 (00:00)
62 Foreign Legion: Multi Massacre Jul 9, 2012 $4.99N/A (N/A)50,000 .. 100,0000%00:00 (00:00)
63 Painkiller: Recurring Evil Feb 29, 2012 $9.99N/A (N/A/38%)100,000 .. 200,0000%00:00 (00:00)
64 Noitu Love 2: Devolution Apr 23, 2012 $4.99N/A (N/A/80%)20,000 .. 50,0000%00:00 (00:00)
65 Sacred Citadel Apr 16, 2013 $9.99N/A (N/A/61%)500,000 .. 1,000,0000%00:00 (00:00)
66 Blades of Time Apr 20, 2012 $9.99N/A (N/A/63%)200,000 .. 500,0000%00:00 (00:00)
67 Cannon Fodder 3 Aug 6, 2012 $14.99N/A (N/A/49%)20,000 .. 50,0000%00:00 (00:00)
68 Primal Fears Jan 8, 2013 $9.99N/A (N/A)50,000 .. 100,0000%00:00 (00:00)
69 Kung Fu Strike - The Warrior's Rise Jul 24, 2012 $9.99N/A (N/A)100,000 .. 200,0000%00:00 (00:00)
70 Inversion Jul 26, 2012 $9.99N/A (N/A)20,000 .. 50,0000%00:00 (00:00)
71 MDK2 HD Jul 30, 2012 $14.99N/A (N/A/73%)0 .. 20,0000%00:00 (00:00)
72 Intrusion 2 Sep 11, 2012 $9.99N/A (N/A/80%)200,000 .. 500,0000%00:00 (00:00)
73 Karateka Dec 3, 2012 $3.99N/A (N/A/48%)100,000 .. 200,0000%00:00 (00:00)
74 iBomber Attack Nov 1, 2012 $5.99N/A (N/A)20,000 .. 50,0000%00:00 (00:00)
75 NiGHTS Into Dreams Dec 17, 2012 $7.99N/A (N/A)200,000 .. 500,0000%00:00 (00:00)
76 Miner Wars 2081 Nov 28, 2012 $4.99N/A (N/A/52%)50,000 .. 100,0000%00:00 (00:00)
77 Dragon's Lair Jun 19, 1983 $9.99N/A (N/A)50,000 .. 100,0000%00:00 (00:00)
78 Thunder Wolves May 15, 2013 $9.99N/A (N/A/69%)50,000 .. 100,0000%00:00 (00:00)
79 Strike Suit Infinity Apr 30, 2013 $6.99N/A (N/A/66%)100,000 .. 200,0000%00:00 (00:00)
80 The Apogee Throwback Pack Jul 1, 2013 $9.99N/A (N/A)200,000 .. 500,0000%00:00 (00:00)
81 Guncraft Aug 9, 2013 $14.99N/A (N/A/73%)100,000 .. 200,0000%00:00 (00:00)
82 Kill to Collect Apr 6, 2016 $9.99N/A (N/A/57%)20,000 .. 50,0000%00:00 (00:00)
83 The Chaos Engine Aug 29, 2013 $9.99N/A (N/A/40%)100,000 .. 200,0000%00:00 (00:00)
84 Blood Omen 2: Legacy of Kain Sep 24, 2013 $6.99N/A (N/A)200,000 .. 500,0000%00:00 (00:00)
85 Disney Epic Mickey 2: The Power of Two Oct 6, 2014 $19.99N/A (N/A)50,000 .. 100,0000%00:00 (00:00)
86 Strike Vector Jan 28, 2014 N/AN/A (N/A/73%)100,000 .. 200,0000%00:00 (00:00)
87 Shadow Man Mar 9, 1999 N/AN/A (N/A)50,000 .. 100,0000%00:00 (00:00)
88 YAIBA: NINJA GAIDEN Z Mar 21, 2014 $29.99N/A (N/A)50,000 .. 100,0000%00:00 (00:00)
89 Tiny Barbarian DX Dec 3, 2013 $29.99N/A (N/A)20,000 .. 50,0000%00:00 (00:00)
90 Hot Tin Roof: The Cat That Wore A Fedora Feb 20, 2015 $14.99N/A (N/A/66%)100,000 .. 200,0000%00:00 (00:00)
91 Alone in the Dark (2008) Nov 18, 2008 $9.99N/A (N/A/55%)50,000 .. 100,0000%00:00 (00:00)
92 Cold War Sep 27, 2005 $4.99N/A (N/A/64%)20,000 .. 50,0000%00:00 (00:00)
93 Aces Wild: Manic Brawling Action! Aug 8, 2013 $9.99N/A (N/A)50,000 .. 100,0000%00:00 (00:00)
94 Spider: Rite of the Shrouded Moon Aug 6, 2015 $9.99N/A (N/A)20,000 .. 50,0000%00:00 (00:00)
95 GIGANTIC ARMY Mar 6, 2014 $5.99N/A (N/A)50,000 .. 100,0000%00:00 (00:00)
96 Eterium Apr 15, 2014 N/AN/A (N/A)50,000 .. 100,0000%00:00 (00:00)
97 Ubersoldier II Jul 22, 2008 $1.99N/A (N/A/62%)100,000 .. 200,0000%00:00 (00:00)
98 Explodemon Nov 3, 2011 $8.99N/A (N/A)20,000 .. 50,0000%00:00 (00:00)
99 House of the Dying Sun Nov 1, 2016 $19.99N/A (N/A/76%)100,000 .. 200,0000%00:00 (00:00)
100 Project Root May 1, 2014 $9.99N/A (N/A)20,000 .. 50,0000%00:00 (00:00)
101 Shadow Ops: Red Mercury Sep 17, 2004 $6.99N/A (N/A/61%)50,000 .. 100,0000%00:00 (00:00)
102 El Matador Sep 25, 2006 $3.99N/A (N/A/54%)50,000 .. 100,0000%00:00 (00:00)
103 Elliot Quest Nov 10, 2014 $9.99N/A (N/A)20,000 .. 50,0000%00:00 (00:00)
104 Dark Raid Jun 3, 2014 $3.99N/A (N/A)20,000 .. 50,0000%00:00 (00:00)
105 Putt-Putt Saves The Zoo Dec 31, 1995 $6.99N/A (N/A)20,000 .. 50,0000%00:00 (00:00)
106 Beyond Space Remastered Edition Jun 16, 2014 N/AN/A (N/A)20,000 .. 50,0000%00:00 (00:00)
107 JUJU Dec 10, 2014 $9.99N/A (N/A/65%)0 .. 20,0000%00:00 (00:00)
108 Chernobyl Commando Mar 8, 2013 N/AN/A (N/A)50,000 .. 100,0000%00:00 (00:00)
109 Manhunter Jan 29, 2013 N/AN/A (N/A)100,000 .. 200,0000%00:00 (00:00)
110 The Way May 20, 2016 $14.99N/A (N/A/67%)100,000 .. 200,0000%00:00 (00:00)
111 The Stalin Subway: Red Veil Oct 5, 2006 $2.99N/A (N/A)50,000 .. 100,0000%00:00 (00:00)
112 OCEAN CITY RACING Aug 27, 2016 $1.99N/A (N/A)50,000 .. 100,0000%00:00 (00:00)
113 Vertical Drop Heroes HD Jul 25, 2014 $6.99N/A (N/A/70%)100,000 .. 200,0000%00:00 (00:00)
114 Disney Alice in Wonderland Oct 6, 2014 $19.99N/A (N/A/63%)20,000 .. 50,0000%00:00 (00:00)
115 Disney G-Force Jul 21, 2009 $19.99N/A (N/A/61%)0 .. 20,0000%00:00 (00:00)
116 Raiden IV: OverKill Sep 3, 2015 N/AN/A (N/A)50,000 .. 100,0000%00:00 (00:00)
117 Deer Hunt Legends Jan 16, 2015 $0.99N/A (N/A)0 .. 20,0000%00:00 (00:00)
118 Down To One Jan 7, 2016 N/AN/A (N/A)100,000 .. 200,0000%00:00 (00:00)
119 Raptor: Call of The Shadows - 2015 Edition Apr 1, 1994 $4.99N/A (N/A)50,000 .. 100,0000%00:00 (00:00)
120 TEMBO THE BADASS ELEPHANT Jul 21, 2015 $14.99N/A (N/A)50,000 .. 100,0000%00:00 (00:00)
121 ABRACA - Imagic Games Mar 31, 2016 $14.99N/A (N/A)0 .. 20,0000%00:00 (00:00)
122 Supercharged Robot VULKAISER Jun 4, 2015 $4.99N/A (N/A)20,000 .. 50,0000%00:00 (00:00)
123 On My Own Feb 26, 2016 $7.99N/A (N/A)20,000 .. 50,0000%00:00 (00:00)
124 Hocus Pocus Jun 1, 1994 $4.99N/A (N/A)20,000 .. 50,0000%00:00 (00:00)
125 Stargunner Nov 19, 1996 FreeN/A (N/A)20,000 .. 50,0000%00:00 (00:00)
126 Rise of the Triad: Dark War Dec 21, 1994 $6.99N/A (N/A)20,000 .. 50,0000%00:00 (00:00)
127 Mega Man Legacy Collection Aug 24, 2015 $14.99N/A (N/A/85%)200,000 .. 500,0000%00:00 (00:00)
128 Below Kryll Sep 7, 2015 $4.99N/A (N/A)0 .. 20,0000%00:00 (00:00)
129 METAL SLUG 2 Apr 14, 2016 $6.99N/A (N/A)100,000 .. 200,0000%00:00 (00:00)
130 SHOCK TROOPERS May 18, 2016 $7.99N/A (N/A)20,000 .. 50,0000%00:00 (00:00)
131 Super Mutant Alien Assault Jul 11, 2016 $9.99N/A (N/A)0 .. 20,0000%00:00 (00:00)
132 Grey Cubes May 15, 2015 N/AN/A (N/A)50,000 .. 100,0000%00:00 (00:00)
133 Kung Fury: Street Rage May 28, 2015 N/AN/A (N/A)200,000 .. 500,0000%00:00 (00:00)
134 Cruel Arena Aug 18, 2015 $0.99N/A (N/A)200,000 .. 500,0000%00:00 (00:00)
135 Glass Wing Jun 24, 2015 FreeN/A (N/A)50,000 .. 100,0000%00:00 (00:00)
136 Zanzarah: The Hidden Portal Aug 20, 2015 $7.99N/A (N/A)200,000 .. 500,0000%00:00 (00:00)
137 Umihara Kawase Shun Nov 24, 2015 $11.99N/A (N/A)0 .. 20,0000%00:00 (00:00)
138 Mighty Gunvolt Sep 29, 2015 $4.99N/A (N/A)20,000 .. 50,0000%00:00 (00:00)
139 Code of Princess Apr 14, 2016 $14.99N/A (N/A/53%)50,000 .. 100,0000%00:00 (00:00)
140 Mytheon Jul 13, 2010 $9.99N/A (N/A)0 .. 20,0000%00:00 (00:00)
141 Emmerholt: Prologue Feb 14, 2017 FreeN/A (N/A)0 .. 20,0000%00:00 (00:00)
142 Skautfold: Shrouded in Sanity May 27, 2016 $4.99N/A (N/A)50,000 .. 100,0000%00:00 (00:00)
143 Skylar & Plux: Adventure On Clover Island May 19, 2017 N/AN/A (N/A)20,000 .. 50,0000%00:00 (00:00)
144 Spell Fighter VR Mar 1, 2016 FreeN/A (N/A)100,000 .. 200,0000%00:00 (00:00)
145 Zenodyne R May 29, 2016 $9.99N/A (N/A)0 .. 20,0000%00:00 (00:00)
146 Versus: Battle of the Gladiator Aug 26, 2016 N/AN/A (N/A)50,000 .. 100,0000%00:00 (00:00)
147 Phantaruk Aug 16, 2016 $4.99N/A (N/A/53%)20,000 .. 50,0000%00:00 (00:00)
148 Yomawari: Night Alone Oct 25, 2016 $19.99N/A (N/A)50,000 .. 100,0000%00:00 (00:00)
149 Scrap Garden - The Day Before Oct 7, 2016 FreeN/A (N/A)200,000 .. 500,0000%00:00 (00:00)
150 THOTH Oct 7, 2016 $4.99N/A (N/A)50,000 .. 100,0000%00:00 (00:00)
151 Unbox: Newbie's Adventure Sep 5, 2016 $19.99N/A (N/A/68%)50,000 .. 100,0000%00:00 (00:00)
152 Crewsaders Nov 17, 2016 $2.99N/A (N/A)20,000 .. 50,0000%00:00 (00:00)
153 Deus Ex: Breach Jan 24, 2017 FreeN/A (N/A)100,000 .. 200,0000%00:00 (00:00)
154 Xmas Shooting - Scramble!! Dec 16, 2016 $4.99N/A (N/A)20,000 .. 50,0000%00:00 (00:00)
155 STAR WARS SHADOWS OF THE EMPIRE Sep 17, 1997 $5.99N/A (N/A)50,000 .. 100,0000%00:00 (00:00)

Geography of active players over time, share:

Access restricted.

This feature is only available to users with special access rights. Sorry.

If you want to proceed, you need to register or log in first and then back Steam Spy on Patreon. Look for Indie or Pro pledge.

Don't forget to use the same email as on Steam Spy!

If you've recently backed Steam Spy on Patreon, please note, that it might take around 15 minutes for your access rights to sync. In most cases you'll need to re-login on Steam Spy too.

Tags over time:

Access restricted.

This feature is only available to users with special access rights. Sorry.

If you want to proceed, you need to register or log in first and then back Steam Spy on Patreon. Look for Indie or Pro pledge.

Don't forget to use the same email as on Steam Spy!

If you've recently backed Steam Spy on Patreon, please note, that it might take around 15 minutes for your access rights to sync. In most cases you'll need to re-login on Steam Spy too.

Owners of this game also own:

Access restricted.

This feature is only available to users with special access rights. Sorry.

If you want to proceed, you need to register or log in first and then back Steam Spy on Patreon. Look for Indie or Pro pledge.

Don't forget to use the same email as on Steam Spy!

If you've recently backed Steam Spy on Patreon, please note, that it might take around 15 minutes for your access rights to sync. In most cases you'll need to re-login on Steam Spy too.

Playtime distribution:

Access restricted.

This feature is only available to users with special access rights. Sorry.

If you want to proceed, you need to register or log in first and then back Steam Spy on Patreon. Look for Indie or Pro pledge.

Don't forget to use the same email as on Steam Spy!

If you've recently backed Steam Spy on Patreon, please note, that it might take around 15 minutes for your access rights to sync. In most cases you'll need to re-login on Steam Spy too.

Playtime (2 weeks):

Access restricted.

This feature is only available to users with special access rights. Sorry.

If you want to proceed, you need to register or log in first and then back Steam Spy on Patreon. Look for Indie or Pro pledge.

Don't forget to use the same email as on Steam Spy!

If you've recently backed Steam Spy on Patreon, please note, that it might take around 15 minutes for your access rights to sync. In most cases you'll need to re-login on Steam Spy too.

User reviews:

Login required.

Please register or log in to see this information.